SVA907 OEDF-OEJN

Flight info

Callsign SVA907
Flight time 1h 56m
Altitude 36000
Route EMUSA2F EMUSA Q212 GETOT J852 KSA G782 RGB M309 VEMEM VEMEM1C
Aircraft B77L/H-SDE1E2E3FGHIJ2J3J4J5M1RWXY/LB1D1

Departure

Time 2026-04-30 19:12
Airport King Fahd International Airport (OEDF)

Arrival

Time 2026-04-30 21:08
Airport King Abdulaziz International Airport (OEJN)
Time Latitude Longitude Altitude Speed Heading
2026-04-30 18:56 26.47910 49.79003 89 ft 0 kts 75°
2026-04-30 18:58 26.47906 49.78988 92 ft 4 kts 75°
2026-04-30 18:58 26.47899 49.78959 93 ft 4 kts 75°
2026-04-30 18:58 26.47895 49.78936 90 ft 4 kts 103°
2026-04-30 18:59 26.47933 49.78910 91 ft 4 kts 165°
2026-04-30 19:00 26.47950 49.78906 89 ft 0 kts 165°
2026-04-30 19:04 26.47903 49.78920 94 ft 12 kts 164°
2026-04-30 19:05 26.47737 49.78937 94 ft 13 kts 225°
2026-04-30 19:05 26.47601 49.78850 93 ft 14 kts 163°
2026-04-30 19:06 26.47412 49.78909 94 ft 14 kts 163°
2026-04-30 19:06 26.47318 49.78939 93 ft 14 kts 164°
2026-04-30 19:06 26.47129 49.78998 94 ft 14 kts 165°
2026-04-30 19:07 26.46918 49.79063 93 ft 18 kts 164°
2026-04-30 19:07 26.46790 49.79103 93 ft 20 kts 165°
2026-04-30 19:08 26.46493 49.79193 94 ft 24 kts 165°
2026-04-30 19:08 26.46145 49.79301 94 ft 27 kts 162°
2026-04-30 19:08 26.45963 49.79359 92 ft 27 kts 165°
2026-04-30 19:09 26.45598 49.79471 93 ft 26 kts 165°
2026-04-30 19:09 26.45511 49.79494 93 ft 13 kts 180°
2026-04-30 19:09 26.45451 49.79432 91 ft 13 kts 254°
2026-04-30 19:10 26.45420 49.79301 91 ft 6 kts 255°
2026-04-30 19:10 26.45420 49.79203 93 ft 8 kts 330°
2026-04-30 19:11 26.45476 49.79182 91 ft 9 kts 343°
2026-04-30 19:11 26.46067 49.78999 96 ft 112 kts 345°
2026-04-30 19:11 26.47042 49.78695 109 ft 173 kts 345°
2026-04-30 19:12 26.48228 49.78376 776 ft 175 kts 348°
2026-04-30 19:12 26.49376 49.78068 1751 ft 164 kts 346°
2026-04-30 19:12 26.50481 49.77691 2558 ft 173 kts 345°
2026-04-30 19:13 26.53223 49.76798 3262 ft 232 kts 346°
2026-04-30 19:13 26.56506 49.75780 4818 ft 258 kts 345°
2026-04-30 19:13 26.58187 49.75030 5563 ft 267 kts 324°
2026-04-30 19:14 26.59374 49.73426 6437 ft 272 kts 293°
2026-04-30 19:14 26.59755 49.71382 7327 ft 269 kts 268°
2026-04-30 19:14 26.59365 49.69338 7886 ft 271 kts 244°
2026-04-30 19:14 26.58492 49.67516 8001 ft 272 kts 251°
2026-04-30 19:15 26.58407 49.65413 8017 ft 278 kts 283°
2026-04-30 19:15 26.59569 49.61308 8023 ft 277 kts 283°
2026-04-30 19:15 26.60012 49.59221 8016 ft 275 kts 281°
2026-04-30 19:16 26.60418 49.57142 8015 ft 273 kts 281°
2026-04-30 19:16 26.60812 49.55067 8013 ft 272 kts 280°
2026-04-30 19:16 26.60716 49.50974 8034 ft 274 kts 245°
2026-04-30 19:17 26.59701 49.49149 8034 ft 277 kts 236°
2026-04-30 19:17 26.57525 49.45658 8020 ft 274 kts 236°
2026-04-30 19:17 26.56436 49.43907 8098 ft 275 kts 236°
2026-04-30 19:18 26.54622 49.40979 9011 ft 274 kts 236°
2026-04-30 19:18 26.53179 49.38640 9041 ft 276 kts 236°
2026-04-30 19:18 26.52092 49.36876 9038 ft 274 kts 236°
2026-04-30 19:19 26.51014 49.35127 9032 ft 273 kts 236°
2026-04-30 19:19 26.49939 49.33382 9043 ft 273 kts 236°
2026-04-30 19:19 26.47872 49.29821 9042 ft 274 kts 241°
2026-04-30 19:20 26.46940 49.27964 9038 ft 274 kts 241°
2026-04-30 19:20 26.46012 49.26106 9042 ft 275 kts 241°
2026-04-30 19:20 26.44133 49.22386 9045 ft 275 kts 241°
2026-04-30 19:21 26.43184 49.20525 9046 ft 276 kts 240°
2026-04-30 19:21 26.41283 49.16808 9683 ft 276 kts 240°
2026-04-30 19:22 26.39347 49.13019 11121 ft 303 kts 241°
2026-04-30 19:22 26.35809 49.06100 12888 ft 362 kts 241°
2026-04-30 19:23 26.32015 48.98696 15750 ft 373 kts 242°
2026-04-30 19:24 26.29422 48.93623 15944 ft 377 kts 242°
2026-04-30 19:24 26.28140 48.91116 15951 ft 376 kts 242°
2026-04-30 19:24 26.25547 48.86047 15948 ft 376 kts 242°
2026-04-30 19:25 26.21652 48.78440 16528 ft 380 kts 241°
2026-04-30 19:26 26.19018 48.73284 18415 ft 383 kts 243°
2026-04-30 19:26 26.17736 48.67494 19551 ft 395 kts 262°
2026-04-30 19:26 26.17402 48.64477 20251 ft 400 kts 262°
2026-04-30 19:27 26.16632 48.58310 21902 ft 405 kts 261°
2026-04-30 19:27 26.15820 48.52028 23369 ft 415 kts 261°
2026-04-30 19:28 26.15404 48.48832 24004 ft 419 kts 261°
2026-04-30 19:28 26.14568 48.42393 25412 ft 422 kts 261°
2026-04-30 19:29 26.13723 48.35895 26726 ft 427 kts 261°
2026-04-30 19:29 26.13295 48.32616 27349 ft 430 kts 260°
2026-04-30 19:30 26.11968 48.22714 29095 ft 436 kts 257°
2026-04-30 19:30 26.09842 48.16371 30055 ft 441 kts 244°
2026-04-30 19:31 26.06477 48.10713 31232 ft 437 kts 232°
2026-04-30 19:31 26.04531 48.08133 31906 ft 432 kts 232°
2026-04-30 19:31 26.00688 48.03050 33135 ft 426 kts 232°
2026-04-30 19:32 25.98797 48.00526 33692 ft 424 kts 232°
2026-04-30 19:32 25.96914 47.97998 34002 ft 426 kts 233°
2026-04-30 19:32 25.93144 47.92920 33988 ft 424 kts 233°
2026-04-30 19:33 25.89395 47.87872 33997 ft 422 kts 233°
2026-04-30 19:33 25.85649 47.82837 33998 ft 423 kts 233°
2026-04-30 19:34 25.81909 47.77849 33991 ft 423 kts 232°
2026-04-30 19:35 25.76242 47.70325 33998 ft 423 kts 232°
2026-04-30 19:35 25.72467 47.65312 33998 ft 424 kts 232°
2026-04-30 19:36 25.68688 47.60288 34001 ft 424 kts 232°
2026-04-30 19:36 25.63049 47.52737 34003 ft 424 kts 232°
2026-04-30 19:37 25.59282 47.47715 33999 ft 424 kts 232°
2026-04-30 19:37 25.56140 47.43543 34001 ft 424 kts 232°
2026-04-30 19:38 25.51750 47.37716 33994 ft 424 kts 232°
2026-04-30 19:38 25.48580 47.33512 33999 ft 424 kts 232°
2026-04-30 19:39 25.44826 47.28536 34004 ft 424 kts 232°
2026-04-30 19:39 25.41042 47.23525 34015 ft 424 kts 232°
2026-04-30 19:40 25.37257 47.18519 33999 ft 424 kts 232°
2026-04-30 19:40 25.33464 47.13508 34000 ft 425 kts 232°
2026-04-30 19:41 25.29662 47.08490 34005 ft 426 kts 232°
2026-04-30 19:41 25.25874 47.03495 34006 ft 427 kts 232°
2026-04-30 19:42 25.22050 46.98458 34006 ft 427 kts 232°
2026-04-30 19:42 25.18225 46.93426 34006 ft 428 kts 232°
2026-04-30 19:43 25.14391 46.88388 34004 ft 428 kts 232°
2026-04-30 19:44 25.08667 46.80873 34016 ft 428 kts 232°
2026-04-30 19:44 25.04834 46.75848 34018 ft 428 kts 232°
2026-04-30 19:45 25.01004 46.70832 34023 ft 427 kts 232°
2026-04-30 19:45 24.97285 46.65719 34027 ft 426 kts 236°
2026-04-30 19:46 24.94100 46.60213 34020 ft 425 kts 238°
2026-04-30 19:46 24.90920 46.54720 34003 ft 427 kts 238°
2026-04-30 19:47 24.87693 46.49175 34014 ft 430 kts 238°
2026-04-30 19:47 24.84452 46.43612 34004 ft 433 kts 238°
2026-04-30 19:48 24.81216 46.38064 33999 ft 434 kts 238°
2026-04-30 19:48 24.77948 46.32469 34002 ft 434 kts 238°
2026-04-30 19:49 24.74677 46.26873 34000 ft 434 kts 238°
2026-04-30 19:49 24.69771 46.18493 33995 ft 434 kts 238°
2026-04-30 19:50 24.66516 46.12939 33986 ft 433 kts 238°
2026-04-30 19:50 24.63244 46.07366 33978 ft 434 kts 238°
2026-04-30 19:51 24.59973 46.01800 33995 ft 434 kts 238°
2026-04-30 19:51 24.56698 45.96232 33973 ft 434 kts 238°
2026-04-30 19:52 24.53401 45.90633 33987 ft 435 kts 237°
2026-04-30 19:52 24.50106 45.85044 33966 ft 437 kts 237°
2026-04-30 19:53 24.46799 45.79441 33963 ft 438 kts 237°
2026-04-30 19:53 24.43890 45.73846 33960 ft 438 kts 244°
2026-04-30 19:54 24.41247 45.67817 33975 ft 439 kts 244°
2026-04-30 19:54 24.38574 45.61794 33975 ft 439 kts 243°
2026-04-30 19:55 24.35888 45.55772 33968 ft 440 kts 244°
2026-04-30 19:55 24.33199 45.49751 33968 ft 439 kts 243°
2026-04-30 19:56 24.30529 45.43781 33967 ft 439 kts 243°
2026-04-30 19:56 24.27840 45.37774 33997 ft 438 kts 244°
2026-04-30 19:57 24.25157 45.31789 33979 ft 436 kts 244°
2026-04-30 19:57 24.22486 45.25836 33972 ft 435 kts 243°
2026-04-30 19:58 24.19819 45.19902 33956 ft 433 kts 243°
2026-04-30 19:58 24.17160 45.13990 33985 ft 432 kts 243°
2026-04-30 19:59 24.14509 45.08102 33977 ft 430 kts 243°
2026-04-30 20:00 24.10564 44.99334 34004 ft 430 kts 243°
2026-04-30 20:00 24.07921 44.93467 33989 ft 429 kts 243°
2026-04-30 20:01 24.03953 44.84675 33987 ft 429 kts 243°
2026-04-30 20:01 24.01310 44.78826 33989 ft 429 kts 243°
2026-04-30 20:02 23.97333 44.70040 34181 ft 435 kts 244°
2026-04-30 20:03 23.94655 44.64129 35037 ft 432 kts 244°
2026-04-30 20:03 23.93322 44.61192 35517 ft 430 kts 244°
2026-04-30 20:03 23.92081 44.58230 35963 ft 427 kts 248°
2026-04-30 20:03 23.91016 44.55216 35965 ft 424 kts 248°
2026-04-30 20:04 23.88944 44.49256 35977 ft 417 kts 248°
2026-04-30 20:05 23.85834 44.40366 35997 ft 419 kts 248°
2026-04-30 20:05 23.82684 44.31425 35983 ft 422 kts 248°
2026-04-30 20:06 23.80571 44.25444 35977 ft 422 kts 248°
2026-04-30 20:06 23.78455 44.19464 35978 ft 421 kts 248°
2026-04-30 20:07 23.76345 44.13506 35967 ft 420 kts 248°
2026-04-30 20:08 23.73187 44.04605 35973 ft 419 kts 248°
2026-04-30 20:08 23.71082 43.98683 35971 ft 418 kts 248°
2026-04-30 20:09 23.68975 43.92764 35973 ft 418 kts 248°
2026-04-30 20:09 23.65825 43.83930 35969 ft 418 kts 248°
2026-04-30 20:10 23.62657 43.75065 35975 ft 418 kts 248°
2026-04-30 20:11 23.59478 43.66186 35985 ft 420 kts 248°
2026-04-30 20:11 23.57350 43.60252 35983 ft 420 kts 248°
2026-04-30 20:12 23.54152 43.51352 35983 ft 420 kts 248°
2026-04-30 20:13 23.52017 43.45418 35978 ft 420 kts 248°
2026-04-30 20:13 23.49880 43.39488 35995 ft 421 kts 248°
2026-04-30 20:14 23.47738 43.33552 35999 ft 421 kts 248°
2026-04-30 20:14 23.45594 43.27619 35996 ft 421 kts 248°
2026-04-30 20:15 23.43449 43.21689 36012 ft 421 kts 248°
2026-04-30 20:15 23.41304 43.15769 36004 ft 420 kts 248°
2026-04-30 20:16 23.39158 43.09860 36011 ft 419 kts 248°
2026-04-30 20:16 23.37009 43.03954 36003 ft 419 kts 248°
2026-04-30 20:17 23.34859 42.98056 36007 ft 419 kts 248°
2026-04-30 20:17 23.32728 42.92210 36004 ft 418 kts 248°
2026-04-30 20:18 23.30584 42.86339 36004 ft 417 kts 248°
2026-04-30 20:18 23.28440 42.80475 35996 ft 417 kts 248°
2026-04-30 20:19 23.26295 42.74616 36011 ft 417 kts 248°
2026-04-30 20:19 23.24140 42.68737 36012 ft 418 kts 248°
2026-04-30 20:20 23.21981 42.62856 36007 ft 419 kts 248°
2026-04-30 20:20 23.19817 42.56968 36014 ft 420 kts 248°
2026-04-30 20:21 23.17661 42.51110 36015 ft 420 kts 248°
2026-04-30 20:21 23.15493 42.45224 35998 ft 419 kts 248°
2026-04-30 20:22 23.13322 42.39341 36021 ft 419 kts 248°
2026-04-30 20:22 23.11165 42.33457 36017 ft 419 kts 249°
2026-04-30 20:23 23.09062 42.27550 36011 ft 419 kts 249°
2026-04-30 20:23 23.06964 42.21647 36015 ft 419 kts 249°
2026-04-30 20:24 23.04854 42.15742 36022 ft 418 kts 249°
2026-04-30 20:24 23.02761 42.09897 36012 ft 418 kts 249°
2026-04-30 20:25 22.99601 42.01088 36025 ft 418 kts 249°
2026-04-30 20:26 22.96432 41.92269 36026 ft 418 kts 249°
2026-04-30 20:26 22.93613 41.84446 36028 ft 418 kts 249°
2026-04-30 20:27 22.89028 41.71756 36033 ft 418 kts 249°
2026-04-30 20:28 22.85122 41.60964 36037 ft 419 kts 249°
2026-04-30 20:30 22.79789 41.46274 36038 ft 418 kts 249°
2026-04-30 20:31 22.73396 41.28729 36049 ft 419 kts 249°
2026-04-30 20:32 22.68030 41.14068 36056 ft 419 kts 249°
2026-04-30 20:33 22.64802 41.05270 36039 ft 419 kts 249°
2026-04-30 20:34 22.61584 40.96511 36061 ft 419 kts 249°
2026-04-30 20:35 22.58350 40.87724 36060 ft 419 kts 249°
2026-04-30 20:35 22.55106 40.78939 36064 ft 419 kts 249°
2026-04-30 20:36 22.52938 40.73082 36066 ft 419 kts 249°
2026-04-30 20:37 22.49683 40.64299 36061 ft 420 kts 249°
2026-04-30 20:37 22.48588 40.61346 35533 ft 429 kts 249°
2026-04-30 20:37 22.47471 40.58337 34802 ft 431 kts 249°
2026-04-30 20:37 22.46352 40.55325 34033 ft 430 kts 249°
2026-04-30 20:38 22.45242 40.52339 33342 ft 426 kts 249°
2026-04-30 20:38 22.44143 40.49388 32713 ft 421 kts 249°
2026-04-30 20:38 22.43055 40.46467 32144 ft 416 kts 249°
2026-04-30 20:39 22.40915 40.40726 31013 ft 407 kts 250°
2026-04-30 20:39 22.39872 40.37929 30496 ft 404 kts 250°
2026-04-30 20:39 22.38827 40.35127 29930 ft 402 kts 250°
2026-04-30 20:40 22.36724 40.29488 28741 ft 411 kts 250°
2026-04-30 20:40 22.35646 40.26599 28180 ft 416 kts 250°
2026-04-30 20:40 22.34568 40.23718 27616 ft 412 kts 250°
2026-04-30 20:41 22.32446 40.18057 26532 ft 401 kts 250°
2026-04-30 20:41 22.31403 40.15273 26014 ft 397 kts 250°
2026-04-30 20:41 22.30372 40.12522 25498 ft 393 kts 250°
2026-04-30 20:41 22.29352 40.09800 24976 ft 390 kts 251°
2026-04-30 20:42 22.28336 40.07093 24470 ft 388 kts 250°
2026-04-30 20:42 22.27328 40.04409 23981 ft 386 kts 251°
2026-04-30 20:42 22.24957 39.99323 23278 ft 374 kts 240°
2026-04-30 20:43 22.23498 39.97037 23103 ft 365 kts 238°
2026-04-30 20:43 22.22055 39.94819 22929 ft 355 kts 239°
2026-04-30 20:43 22.20684 39.92656 22762 ft 344 kts 239°
2026-04-30 20:44 22.18110 39.88471 22488 ft 325 kts 240°
2026-04-30 20:44 22.16880 39.86456 22238 ft 320 kts 240°
2026-04-30 20:44 22.14412 39.82415 21460 ft 326 kts 239°
2026-04-30 20:45 22.11893 39.78298 20662 ft 329 kts 239°
2026-04-30 20:45 22.10634 39.76245 20259 ft 328 kts 239°
2026-04-30 20:45 22.09382 39.74202 19850 ft 326 kts 239°
2026-04-30 20:46 22.05660 39.68132 18667 ft 323 kts 238°
2026-04-30 20:46 22.04421 39.66114 18249 ft 323 kts 238°
2026-04-30 20:47 22.01957 39.62100 17406 ft 319 kts 238°
2026-04-30 20:47 22.00737 39.60112 17014 ft 316 kts 238°
2026-04-30 20:48 21.98330 39.56197 16239 ft 311 kts 238°
2026-04-30 20:48 21.97138 39.54258 15854 ft 308 kts 238°
2026-04-30 20:48 21.95958 39.52340 15488 ft 306 kts 238°
2026-04-30 20:48 21.94787 39.50437 15116 ft 303 kts 237°
2026-04-30 20:49 21.93686 39.48505 14679 ft 302 kts 243°
2026-04-30 20:49 21.92760 39.46470 14258 ft 302 kts 245°
2026-04-30 20:49 21.91880 39.44411 13811 ft 303 kts 245°
2026-04-30 20:50 21.90112 39.40301 12847 ft 304 kts 245°
2026-04-30 20:50 21.89208 39.38239 12378 ft 304 kts 245°
2026-04-30 20:50 21.88299 39.36184 11912 ft 304 kts 245°
2026-04-30 20:50 21.87411 39.34184 11464 ft 286 kts 245°
2026-04-30 20:51 21.86570 39.32295 11065 ft 276 kts 245°
2026-04-30 20:51 21.84836 39.28407 10405 ft 296 kts 245°
2026-04-30 20:51 21.83960 39.26451 10350 ft 285 kts 245°
2026-04-30 20:52 21.83008 39.24661 10214 ft 269 kts 229°
2026-04-30 20:52 21.81548 39.23524 10090 ft 259 kts 204°
2026-04-30 20:52 21.78088 39.23182 9574 ft 249 kts 168°
2026-04-30 20:53 21.76453 39.23766 9244 ft 246 kts 161°
2026-04-30 20:53 21.74854 39.24426 8801 ft 247 kts 161°
2026-04-30 20:53 21.73247 39.25082 8391 ft 247 kts 162°
2026-04-30 20:54 21.70056 39.26376 7673 ft 243 kts 162°
2026-04-30 20:54 21.68474 39.27008 7295 ft 242 kts 162°
2026-04-30 20:54 21.66898 39.27634 6925 ft 240 kts 162°
2026-04-30 20:55 21.63767 39.28873 6149 ft 239 kts 162°
2026-04-30 20:55 21.62214 39.29485 5771 ft 237 kts 162°
2026-04-30 20:55 21.60668 39.30091 5383 ft 235 kts 162°
2026-04-30 20:56 21.57614 39.31287 4647 ft 233 kts 162°
2026-04-30 20:56 21.56093 39.31883 4231 ft 232 kts 162°
2026-04-30 20:56 21.53036 39.33079 3423 ft 234 kts 161°
2026-04-30 20:57 21.51528 39.33670 3058 ft 233 kts 161°
2026-04-30 20:57 21.50003 39.34267 2926 ft 233 kts 161°
2026-04-30 20:57 21.48478 39.34864 2936 ft 234 kts 160°
2026-04-30 20:58 21.45436 39.36057 2929 ft 231 kts 161°
2026-04-30 20:58 21.43929 39.36646 2925 ft 230 kts 160°
2026-04-30 20:58 21.42427 39.37236 2929 ft 230 kts 160°
2026-04-30 20:58 21.40925 39.37825 2927 ft 229 kts 160°
2026-04-30 20:59 21.37933 39.38999 2937 ft 229 kts 161°
2026-04-30 20:59 21.36417 39.39453 2928 ft 225 kts 179°
2026-04-30 21:00 21.33934 39.37808 2943 ft 223 kts 249°
2026-04-30 21:00 21.34251 39.34673 2944 ft 215 kts 292°
2026-04-30 21:01 21.35857 39.32016 2930 ft 215 kts 314°
2026-04-30 21:01 21.36975 39.30959 2933 ft 214 kts 322°
2026-04-30 21:01 21.39487 39.29255 2922 ft 213 kts 330°
2026-04-30 21:02 21.40792 39.28498 2922 ft 214 kts 331°
2026-04-30 21:02 21.42143 39.27801 2864 ft 219 kts 336°
2026-04-30 21:02 21.43556 39.27181 2753 ft 220 kts 338°
2026-04-30 21:02 21.44982 39.26604 2615 ft 218 kts 339°
2026-04-30 21:03 21.46395 39.26044 2477 ft 214 kts 340°
2026-04-30 21:03 21.47778 39.25499 2344 ft 209 kts 340°
2026-04-30 21:03 21.49136 39.24964 2214 ft 207 kts 340°
2026-04-30 21:03 21.50493 39.24431 2094 ft 208 kts 340°
2026-04-30 21:04 21.51805 39.23912 2040 ft 197 kts 340°
2026-04-30 21:04 21.53047 39.23423 1953 ft 184 kts 340°
2026-04-30 21:04 21.55316 39.22529 1802 ft 161 kts 341°
2026-04-30 21:05 21.56326 39.22129 1745 ft 151 kts 341°
2026-04-30 21:05 21.57303 39.21744 1782 ft 150 kts 341°
2026-04-30 21:05 21.58289 39.21355 1724 ft 149 kts 342°
2026-04-30 21:05 21.59260 39.20972 1534 ft 148 kts 342°
2026-04-30 21:06 21.60224 39.20593 1355 ft 147 kts 341°
2026-04-30 21:06 21.61189 39.20211 1150 ft 148 kts 341°
2026-04-30 21:06 21.62168 39.19825 964 ft 150 kts 341°
2026-04-30 21:06 21.63130 39.19444 780 ft 149 kts 341°
2026-04-30 21:07 21.64096 39.19063 580 ft 148 kts 341°
2026-04-30 21:07 21.65072 39.18678 377 ft 149 kts 340°
2026-04-30 21:07 21.66048 39.18291 197 ft 148 kts 340°
2026-04-30 21:07 21.67018 39.17907 93 ft 161 kts 340°
2026-04-30 21:08 21.68080 39.17484 34 ft 150 kts 341°
2026-04-30 21:08 21.68902 39.17162 34 ft 99 kts 339°
2026-04-30 21:08 21.69361 39.16981 37 ft 28 kts 340°
2026-04-30 21:08 21.69413 39.16877 34 ft 17 kts 252°
2026-04-30 21:09 21.69390 39.16806 33 ft 0 kts 250°
2026-04-30 21:13 21.69389 39.16805 33 ft 1 kts 250°
2026-04-30 21:13 21.69381 39.16781 32 ft 6 kts 250°
2026-04-30 21:13 21.69357 39.16711 27 ft 19 kts 249°
2026-04-30 21:13 21.69297 39.16537 27 ft 26 kts 250°
2026-04-30 21:14 21.69236 39.16357 25 ft 26 kts 250°
2026-04-30 21:14 21.69177 39.16177 26 ft 26 kts 251°
2026-04-30 21:14 21.69112 39.15998 27 ft 26 kts 249°
2026-04-30 21:14 21.69059 39.15845 28 ft 16 kts 249°
2026-04-30 21:15 21.69022 39.15739 28 ft 0 kts 249°
2026-04-30 21:15 21.69022 39.15737 28 ft 1 kts 249°
2026-04-30 21:15 21.69011 39.15705 29 ft 9 kts 250°
2026-04-30 21:15 21.68988 39.15637 29 ft 3 kts 250°
2026-04-30 21:16 21.68973 39.15594 35 ft 12 kts 250°
2026-04-30 21:16 21.68962 39.15563 37 ft 4 kts 250°
2026-04-30 21:16 21.68959 39.15555 37 ft 0 kts 250°
2026-04-30 21:18 21.68956 39.15546 38 ft 7 kts 250°
2026-04-30 21:18 21.68914 39.15424 39 ft 21 kts 249°
2026-04-30 21:18 21.68861 39.15277 37 ft 22 kts 249°
2026-04-30 21:19 21.68846 39.15235 37 ft 0 kts 249°
2026-04-30 21:19 21.68844 39.15229 37 ft 3 kts 249°
2026-04-30 21:19 21.68830 39.15190 37 ft 0 kts 249°
2026-04-30 21:20 21.68828 39.15185 37 ft 1 kts 249°
2026-04-30 21:20 21.68810 39.15149 37 ft 9 kts 227°
2026-04-30 21:20 21.68743 39.15143 36 ft 12 kts 162°
2026-04-30 21:20 21.68646 39.15183 35 ft 17 kts 159°
2026-04-30 21:21 21.68526 39.15231 34 ft 20 kts 161°
2026-04-30 21:21 21.68383 39.15286 32 ft 24 kts 160°
2026-04-30 21:21 21.68066 39.15414 32 ft 25 kts 160°
2026-04-30 21:22 21.67906 39.15477 31 ft 25 kts 160°
2026-04-30 21:22 21.67500 39.15636 32 ft 18 kts 160°
2026-04-30 21:23 21.67464 39.15650 32 ft 7 kts 160°
2026-04-30 21:23 21.67363 39.15689 32 ft 10 kts 159°
2026-04-30 21:24 21.67318 39.15709 32 ft 6 kts 157°
2026-04-30 21:24 21.67279 39.15702 32 ft 6 kts 224°
2026-04-30 21:24 21.67264 39.15656 32 ft 6 kts 251°
2026-04-30 21:24 21.67259 39.15643 32 ft 2 kts 251°
2026-04-30 21:25 21.67253 39.15625 32 ft 0 kts 250°